sat.trackr.live / text

‹ back to catalog

STARLINK-31333

NORAD 58971 · 2024-031G

PAYLOAD ACTIVE UNKNOWN

§ Identity

Operator
Country
US
Launch date
2024-02-15
Launch site
AFWTR
Launch vehicle
Mass (kg)
RCS (m²)

Purposes: comms

External: N2YO · Heavens-Above · Gunter

§ Orbital elements

Epoch: 2026-09-20T23:00:18.436608Z

Period
93.85 min
Inclination
53.1570°
Eccentricity
0.0001028
Mean motion
15.34398336 rev/d
Perigee alt
462.0 km
Apogee alt
463.4 km
Semi-major
6,840.8 km
B*
-8.6762e-6
RAAN
95.2128°
Arg perigee
73.4159°
Mean anomaly
286.6956°
Rev number
14,663

§ Raw data

STARLINK-313331 58971U 24031G   26263.95854672 -.00000669  00000+0 -86762-5 0  99912 58971  53.1570  95.2128 0001028  73.4159 286.6956 15.34398336146637

JSON: /api/v1/satellites/58971 · /tle

For live sub-satellite position, see the globe view (requires WebGL).

§ Visibility from observer

Set your observer location to see the next 7 days of passes ≥ 10°. The values pass through the URL so the page stays shareable.

No JS? Fill the form by hand. The geolocation button needs JavaScript.